C/2017 C1 ( NEOWISE )

Japanese version
Home page
Updated on July 6, 2017

---------------------------------------------------------------------

* Profile

Discovery Date February 6, 2017
Magnitude 19 mag
Discoverer Near-Earth Object Wide-field Infrared Survey Explorer

* Pictures

* Orbital Elements

Epoch 2017 Jan. 7.0 TT = JDT 2457760.5
T 2017 Jan. 18.94184 TT                                 MPCW
q   1.5017302            (2000.0)            P               Q
n   0.01040232     Peri.  110.20121     -0.32787918     -0.94385333
a  20.7833667      Node   357.45734     +0.02695758     +0.03345119
e   0.9277437      Incl.   65.75172     +0.94433497     -0.32866687
P  94.75
From 49 observations 2017 Feb. 6-Apr. 21, mean residual 0".5.

* Magnitudes Graph

        m1 = 17.5 + 5 log d + 10.0 log r

---------------------------------------------------------------------

The orbital elements are published on M.P.E.C. 2017-J52.
The magnitudes graphs are made with Comet for Windows.

---------------------------------------------------------------------

Copyright(C) Seiichi Yoshida (comet@aerith.net). All rights reserved.